Weather History for KFRM - January, 2014

Change the Weather History Date:

Monday, January 27, 2014

  Actual Average (KEST) Record (KEST)
Temperature  
Mean Temperature -6 °F 16 °F  
Max Temperature -4 °F 25 °F - ()
Min Temperature -9 °F 7 °F - ()
Degree Days  
Heating Degree Days 72 49  
Month to date heating degree days 1336  
Since 1 July heating degree days 4479  
Cooling Degree Days 0 0  
Month to date cooling degree days 0  
Year to date cooling degree days 0  
Moisture  
Dew Point -20 °F    
Average Humidity 56    
Maximum Humidity 84    
Minimum Humidity 37    
Precipitation  
Precipitation 0.00 in 0.02 in - ()
Month to date precipitation 0.39  
Sea Level Pressure  
Sea Level Pressure 30.36 in    
Wind  
Wind Speed 20 mph (WNW)    
Max Wind Speed 36 mph    
Max Gust Speed 43 mph    
Visibility 8 miles    
Events      
T = Trace of Precipitation, MM = Missing Value Source: NWS Daily Summary

Daily Weather History Graph

Daily Weather History Graph

Search for Another Location

Airport or City:

Trip Planner

Search our weather history database for the weather conditions in past years. The results will help you decide how hot, cold, wet, or windy it might be!

Date:

Astronomy

Jan. 27, 2014 Rise Set
Actual Time 7:39 AM CST 5:22 PM CST
Civil Twilight 7:08 AM CST 5:53 PM CST
Nautical Twilight 6:33 AM CST 6:27 PM CST
Astronomical Twilight 5:59 AM CST 7:01 PM CST
Moon 4:22 AM CST (1/27) 2:07 PM CST (1/27)
Length of Visible Light 10h 44m
Length of Day
9h 42m
Waning Crescent, 14% of the Moon is Illuminated
Jan 27
Waning Crescent
Jan 30
New
Feb 6
First Quarter
Feb 14
Full
Feb 22
Last Quarter

Hourly Weather History & Observations

Time (CST) Temp. Windchill Dew Point Humidity Pressure Visibility Wind Dir Wind Speed Gust Speed Precip Events Conditions
12:15 AM -5.8 °F -33.3 °F -9.4 °F 84% 30.17 in 3.0 mi NW 28.8 mph 39.1 mph N/A   Overcast
12:35 AM -5.8 °F -32.4 °F -9.4 °F 84% 30.17 in 3.0 mi NW 26.5 mph 38.0 mph N/A   Overcast
12:55 AM -5.8 °F -32.4 °F - N/A% 30.18 in 7.0 mi NW 26.5 mph 33.4 mph N/A   Overcast
1:15 AM -5.8 °F -32.0 °F -13.0 °F 71% 30.18 in 5.0 mi NW 25.3 mph 28.8 mph N/A   Overcast
1:35 AM -7.6 °F -33.4 °F -13.0 °F 77% 30.19 in 5.0 mi NW 23.0 mph 33.4 mph N/A   Overcast
1:55 AM -5.8 °F -35.6 °F -13.0 °F 71% 30.19 in 5.0 mi NW 35.7 mph 42.6 mph N/A   Mostly Cloudy
2:15 AM -5.8 °F -33.7 °F -11.2 °F 77% 30.21 in 3.0 mi NW 29.9 mph 38.0 mph N/A   Overcast
2:35 AM -7.6 °F -33.4 °F -14.8 °F 71% 30.22 in 4.0 mi NW 23.0 mph 31.1 mph N/A   Overcast
2:55 AM -7.6 °F -35.3 °F - N/A% 30.22 in 5.0 mi NW 27.6 mph 35.7 mph N/A   Mostly Cloudy
3:15 AM -7.6 °F -33.9 °F - N/A% 30.24 in 9.0 mi NW 24.2 mph 28.8 mph N/A   Overcast
3:35 AM -7.6 °F -32.3 °F - N/A% 30.25 in 10.0 mi NW 20.7 mph 25.3 mph N/A   Overcast
3:55 AM -7.6 °F -32.9 °F - N/A% 30.26 in 9.0 mi NW 21.9 mph 29.9 mph N/A   Overcast
4:15 AM -7.6 °F -30.5 °F - N/A% 30.27 in 10.0 mi NW 17.3 mph 29.9 mph N/A   Overcast
4:35 AM -7.6 °F -30.5 °F - N/A% 30.27 in 9.0 mi NW 17.3 mph 21.9 mph N/A   Overcast
4:55 AM -9.4 °F -32.8 °F -29.2 °F 37% 30.28 in 8.0 mi NW 17.3 mph 24.2 mph N/A   Mostly Cloudy
5:15 AM -9.4 °F -30.6 °F -29.2 °F 37% 30.29 in 10.0 mi NW 13.8 mph - N/A   Mostly Cloudy
5:35 AM -9.4 °F -32.1 °F -29.2 °F 37% 30.29 in 10.0 mi NW 16.1 mph - N/A   Mostly Cloudy
5:55 AM -9.4 °F -30.6 °F -27.4 °F 41% 30.29 in 10.0 mi NW 13.8 mph - N/A   Mostly Cloudy
6:15 AM -9.4 °F -36.3 °F -25.6 °F 45% 30.29 in 4.0 mi WNW 24.2 mph - N/A   Overcast
6:35 AM -9.4 °F -36.3 °F -25.6 °F 45% 30.30 in 10.0 mi WNW 24.2 mph 27.6 mph N/A   Overcast
6:55 AM -9.4 °F -35.2 °F -27.4 °F 41% 30.32 in 10.0 mi NW 21.9 mph 29.9 mph N/A   Mostly Cloudy
7:15 AM -9.4 °F -34.1 °F -25.6 °F 45% 30.32 in 6.0 mi NW 19.6 mph 29.9 mph N/A   Overcast
7:35 AM -9.4 °F -35.2 °F -27.4 °F 41% 30.33 in 10.0 mi NW 21.9 mph 26.5 mph N/A   Overcast
7:55 AM -9.4 °F -35.2 °F -25.6 °F 45% 30.35 in 5.0 mi NW 21.9 mph 28.8 mph N/A   Overcast
8:15 AM -9.4 °F -34.1 °F -27.4 °F 41% 30.35 in 10.0 mi NW 19.6 mph 24.2 mph N/A   Overcast
8:35 AM -9.4 °F -33.5 °F -25.6 °F 45% 30.36 in 10.0 mi NW 18.4 mph 27.6 mph N/A   Overcast
8:55 AM -9.4 °F -34.1 °F -25.6 °F 45% 30.37 in 5.0 mi NW 19.6 mph 26.5 mph N/A   Overcast
9:15 AM -9.4 °F -35.8 °F -23.8 °F 49% 30.38 in 1.0 mi NW 23.0 mph 26.5 mph N/A   Overcast
9:35 AM -9.4 °F -34.7 °F -25.6 °F 45% 30.39 in 5.0 mi NW 20.7 mph - N/A   Mostly Cloudy
9:55 AM -9.4 °F -34.1 °F -25.6 °F 45% 30.40 in 10.0 mi WNW 19.6 mph - N/A   Overcast
10:15 AM -9.4 °F -34.1 °F -23.8 °F 49% 30.40 in 3.0 mi NW 19.6 mph - N/A   Overcast
10:35 AM -7.6 °F -31.7 °F -23.8 °F 45% 30.41 in 10.0 mi WNW 19.6 mph 23.0 mph N/A   Mostly Cloudy
10:55 AM -9.4 °F -33.5 °F -23.8 °F 49% 30.42 in 10.0 mi WNW 18.4 mph 23.0 mph N/A   Overcast
11:15 AM -9.4 °F -33.5 °F -23.8 °F 49% 30.43 in 2.5 mi WNW 18.4 mph - N/A   Overcast
11:35 AM -7.6 °F -30.5 °F -22.0 °F 50% 30.43 in 10.0 mi NW 17.3 mph 23.0 mph N/A   Overcast
11:55 AM -7.6 °F -30.5 °F -22.0 °F 50% 30.43 in 10.0 mi NW 17.3 mph - N/A   Overcast
12:15 PM -7.6 °F -31.1 °F -22.0 °F 50% 30.43 in 10.0 mi WNW 18.4 mph - N/A   Overcast
12:35 PM -7.6 °F -30.5 °F -20.2 °F 54% 30.43 in 8.0 mi WNW 17.3 mph 23.0 mph N/A   Overcast
12:55 PM -7.6 °F -30.5 °F -20.2 °F 54% 30.42 in 7.0 mi WNW 17.3 mph 21.9 mph N/A   Overcast
1:15 PM -5.8 °F -28.2 °F -20.2 °F 50% 30.41 in 10.0 mi WNW 17.3 mph - N/A   Overcast
1:35 PM -5.8 °F -26.8 °F -18.4 °F 55% 30.41 in 10.0 mi WNW 15.0 mph 23.0 mph N/A   Mostly Cloudy
1:55 PM -5.8 °F -26.8 °F -20.2 °F 50% 30.41 in 10.0 mi NW 15.0 mph - N/A   Mostly Cloudy
2:15 PM -5.8 °F -27.5 °F -18.4 °F 55% 30.40 in 9.0 mi WNW 16.1 mph - N/A   Mostly Cloudy
2:35 PM -5.8 °F -26.0 °F -16.6 °F 60% 30.40 in 10.0 mi NW 13.8 mph 20.7 mph N/A   Mostly Cloudy
2:55 PM -4.0 °F -23.0 °F -18.4 °F 50% 30.40 in 9.0 mi WNW 12.7 mph - N/A   Mostly Cloudy
3:15 PM -5.8 °F -27.5 °F -18.4 °F 55% 30.41 in 10.0 mi NW 16.1 mph 19.6 mph N/A   Mostly Cloudy
3:35 PM -4.0 °F -24.5 °F -16.6 °F 55% 30.41 in 7.0 mi WNW 15.0 mph 19.6 mph N/A   Overcast
3:55 PM -4.0 °F -23.7 °F -18.4 °F 50% 30.41 in 10.0 mi WNW 13.8 mph - N/A   Mostly Cloudy
4:15 PM -4.0 °F -23.7 °F -18.4 °F 50% 30.41 in 10.0 mi WNW 13.8 mph - N/A   Partly Cloudy
4:35 PM -5.8 °F -22.4 °F -18.4 °F 55% 30.41 in 10.0 mi NW 9.2 mph - N/A   Partly Cloudy
4:55 PM -5.8 °F -23.4 °F -18.4 °F 55% 30.41 in 10.0 mi WNW 10.4 mph - N/A   Mostly Cloudy
5:15 PM -5.8 °F -23.4 °F -18.4 °F 55% 30.41 in 10.0 mi WNW 10.4 mph - N/A   Mostly Cloudy
5:35 PM -5.8 °F -21.2 °F -18.4 °F 55% 30.41 in 10.0 mi NW 8.1 mph - N/A   Partly Cloudy
5:55 PM -5.8 °F -18.4 °F -18.4 °F 55% 30.42 in 10.0 mi NW 5.8 mph - N/A   Partly Cloudy
6:15 PM -7.6 °F -20.6 °F -18.4 °F 59% 30.42 in 10.0 mi WNW 5.8 mph - N/A   Partly Cloudy
6:35 PM -7.6 °F -18.8 °F -16.6 °F 65% 30.42 in 10.0 mi WNW 4.6 mph - N/A   Mostly Cloudy
6:55 PM -7.6 °F -16.5 °F -16.6 °F 65% 30.42 in 10.0 mi WNW 3.5 mph - N/A   Scattered Clouds
7:15 PM -7.6 °F -18.8 °F -18.4 °F 59% 30.42 in 10.0 mi West 4.6 mph - N/A   Clear
7:35 PM -9.4 °F -22.7 °F -18.4 °F 65% 30.42 in 10.0 mi West 5.8 mph - N/A   Clear
7:55 PM -7.6 °F -22.1 °F -18.4 °F 59% 30.43 in 10.0 mi West 6.9 mph - N/A   Clear
8:15 PM -7.6 °F -20.6 °F -18.4 °F 59% 30.43 in 10.0 mi West 5.8 mph - N/A   Clear
8:35 PM -7.6 °F -20.6 °F -18.4 °F 59% 30.42 in 10.0 mi West 5.8 mph - N/A   Clear
8:55 PM -9.4 °F -24.3 °F -18.4 °F 65% 30.42 in 10.0 mi West 6.9 mph - N/A   Clear
9:15 PM -9.4 °F -24.3 °F -20.2 °F 59% 30.42 in 10.0 mi West 6.9 mph - N/A   Clear
9:35 PM -9.4 °F -22.7 °F -20.2 °F 59% 30.41 in 10.0 mi West 5.8 mph - N/A   Clear
9:55 PM -9.4 °F -24.3 °F -20.2 °F 59% 30.41 in 10.0 mi West 6.9 mph - N/A   Clear
10:15 PM -9.4 °F -25.6 °F -20.2 °F 59% 30.41 in 10.0 mi West 8.1 mph - N/A   Clear
10:35 PM -9.4 °F -24.3 °F -20.2 °F 59% 30.40 in 10.0 mi West 6.9 mph - N/A   Clear
10:55 PM -9.4 °F -22.7 °F -20.2 °F 59% 30.40 in 10.0 mi West 5.8 mph - N/A   Clear
11:15 PM -9.4 °F -24.3 °F -13.0 °F 84% 30.39 in 10.0 mi West 6.9 mph - N/A   Clear
11:35 PM -9.4 °F -24.3 °F -14.8 °F 77% 30.39 in 10.0 mi West 6.9 mph - N/A   Clear
11:55 PM -9.4 °F -24.3 °F -16.6 °F 71% 30.39 in 10.0 mi West 6.9 mph - N/A   Clear